Weather History for Novato, CA

Change the Weather History Date:

Thursday, January 2, 2014

  Actual Average (KAPC) Record (KAPC)
Temperature  
Mean Temperature 47 °F 45 °F  
Max Temperature 64 °F 54 °F 67 °F (2014)
Min Temperature 30 °F 36 °F 23 °F (2000)
Degree Days  
Heating Degree Days 18    
Month to date heating degree days  
Since 1 July heating degree days  
Cooling Degree Days 0    
Month to date cooling degree days  
Year to date cooling degree days  
Moisture  
Dew Point 35 °F    
Average Humidity 71    
Maximum Humidity 100    
Minimum Humidity 32    
Precipitation  
Precipitation 0.00 in - 1.91 in (1940)
Month to date precipitation  
Year to date precipitation  
Since 1 July precipitation  
Sea Level Pressure  
Sea Level Pressure 30.13 in    
Wind  
Wind Speed 3 mph (SSW)    
Max Wind Speed 10 mph    
Max Gust Speed -    
Visibility 10 miles    
Events      
T = Trace of Precipitation, MM = Missing Value Source: NWS Daily Summary

Daily Weather History Graph

Daily Weather History Graph

Search for Another Location

Airport:

Trip Planner

Search our weather history database for the weather conditions in past years. The results will help you decide how hot, cold, wet, or windy it might be!

Date:

Astronomy

Jan. 02, 2014 Rise Set
Actual Time 7:26 AM PST 5:02 PM PST
Civil Twilight 6:57 AM PST 5:31 PM PST
Nautical Twilight 6:24 AM PST 6:04 PM PST
Astronomical Twilight 5:52 AM PST 6:36 PM PST
Moon 8:14 AM PST (1/2) 7:03 PM PST (1/2)
Length of Visible Light 10h 34m
Length of Day
9h 35m
Waxing Crescent, 3% of the Moon is Illuminated
Jan 2
Waxing Crescent
Jan 7
First Quarter
Jan 15
Full
Jan 23
Last Quarter
Jan 30
New

Hourly Weather History & Observations

Time (PST) Temp. Windchill Dew Point Humidity Pressure Visibility Wind Dir Wind Speed Gust Speed Precip Events Conditions
12:15 AM 35.6 °F - 32.0 °F 87% 30.18 in 10.0 mi Calm Calm - N/A   Clear
12:35 AM 37.4 °F - 33.8 °F 87% 30.17 in 10.0 mi Calm Calm - N/A   Clear
12:55 AM 37.4 °F 34.9 °F 35.6 °F 93% 30.17 in 10.0 mi SSW 3.5 mph - N/A   Clear
1:15 AM 37.4 °F 34.9 °F 35.6 °F 93% 30.17 in 10.0 mi SSW 3.5 mph - N/A   Clear
1:35 AM 37.4 °F 34.9 °F 35.6 °F 93% 30.17 in 10.0 mi South 3.5 mph - N/A   Clear
1:55 AM 32.0 °F 28.7 °F 32.0 °F 100% 30.18 in 10.0 mi North 3.5 mph - N/A   Clear
2:15 AM 35.6 °F - 35.6 °F 100% 30.18 in 9.0 mi North - - N/A   Clear
2:35 AM 35.6 °F - 35.6 °F 100% 30.18 in 10.0 mi Calm Calm - N/A   Clear
2:55 AM 35.6 °F - 35.6 °F 100% 30.18 in 10.0 mi Calm Calm - N/A   Clear
3:15 AM 35.6 °F - 35.6 °F 100% 30.18 in 10.0 mi Calm Calm - N/A   Clear
3:35 AM 35.6 °F - 35.6 °F 100% 30.18 in 10.0 mi Calm Calm - N/A   Clear
3:55 AM 35.6 °F 32.8 °F 35.6 °F 100% 30.18 in 10.0 mi SSW 3.5 mph - N/A   Clear
4:15 AM 35.6 °F 32.8 °F 35.6 °F 100% 30.18 in 10.0 mi South 3.5 mph - N/A   Clear
4:35 AM 30.2 °F - 30.2 °F 100% 30.18 in 8.0 mi Calm Calm - N/A   Clear
4:55 AM 33.8 °F 30.8 °F 33.8 °F 100% 30.17 in 10.0 mi SSW 3.5 mph - N/A   Clear
5:15 AM 32.0 °F - 32.0 °F 100% 30.17 in 10.0 mi Calm Calm - N/A   Clear
5:35 AM 32.0 °F - 32.0 °F 100% 30.17 in 10.0 mi Calm Calm - N/A   Clear
5:55 AM 32.0 °F - 32.0 °F 100% 30.17 in 6.0 mi Calm Calm - N/A   Clear
6:15 AM 32.0 °F - 32.0 °F 100% 30.17 in 8.0 mi Calm Calm - N/A   Clear
6:35 AM 32.0 °F 28.7 °F 32.0 °F 100% 30.17 in 10.0 mi SSW 3.5 mph - N/A   Clear
6:55 AM 33.8 °F 27.0 °F 33.8 °F 100% 30.17 in 10.0 mi South 8.1 mph - N/A   Clear
7:15 AM 35.6 °F 29.2 °F 35.6 °F 100% 30.17 in 10.0 mi South 8.1 mph - N/A   Clear
7:35 AM 37.4 °F 32.1 °F 37.4 °F 100% 30.17 in 10.0 mi South 6.9 mph - N/A   Clear
7:55 AM 41.0 °F 36.4 °F 35.6 °F 81% 30.17 in 10.0 mi South 6.9 mph - N/A   Clear
8:15 AM 39.2 °F 33.6 °F 37.4 °F 93% 30.18 in 10.0 mi South 8.1 mph - N/A   Clear
8:35 AM 42.8 °F 39.3 °F 37.4 °F 81% 30.18 in 9.0 mi South 5.8 mph - N/A   Clear
8:55 AM 46.4 °F 42.9 °F 37.4 °F 71% 30.19 in 10.0 mi SSW 6.9 mph - N/A   Clear
9:15 AM 50.0 °F - 35.6 °F 58% 30.19 in 10.0 mi SSW 9.2 mph - N/A   Clear
9:35 AM 50.0 °F - 37.4 °F 62% 30.20 in 10.0 mi SSW 9.2 mph - N/A   Clear
9:55 AM 51.8 °F - 37.4 °F 58% 30.20 in 10.0 mi SW 10.4 mph - N/A   Clear
10:15 AM 53.6 °F - 37.4 °F 54% 30.20 in 10.0 mi SW 10.4 mph - N/A   Clear
10:35 AM 53.6 °F - 37.4 °F 54% 30.20 in 10.0 mi SSW 10.4 mph - N/A   Clear
10:55 AM 55.4 °F - 37.4 °F 51% 30.19 in 9.0 mi SSW 10.4 mph - N/A   Clear
11:15 AM 55.4 °F - 35.6 °F 47% 30.18 in 10.0 mi SSW 9.2 mph - N/A   Clear
11:35 AM 57.2 °F - 35.6 °F 44% 30.17 in 10.0 mi SSW 8.1 mph - N/A   Clear
11:55 AM 57.2 °F - 35.6 °F 44% 30.16 in 10.0 mi South 8.1 mph - N/A   Clear
12:15 PM 57.2 °F - 35.6 °F 44% 30.15 in 10.0 mi South 5.8 mph - N/A   Clear
12:35 PM 59.0 °F - 35.6 °F 42% 30.14 in 10.0 mi SSW 8.1 mph - N/A   Clear
12:55 PM 59.0 °F - 35.6 °F 42% 30.13 in 10.0 mi South 4.6 mph - N/A   Clear
1:15 PM 60.8 °F - 35.6 °F 39% 30.12 in 10.0 mi South 5.8 mph - N/A   Clear
1:35 PM 62.6 °F - 35.6 °F 37% 30.11 in 10.0 mi South 6.9 mph - N/A   Clear
1:55 PM 62.6 °F - 35.6 °F 37% 30.11 in 10.0 mi South 5.8 mph - N/A   Clear
2:15 PM 62.6 °F - 35.6 °F 37% 30.10 in 10.0 mi South 3.5 mph - N/A   Clear
2:35 PM 62.6 °F - 35.6 °F 37% 30.09 in 10.0 mi SE 3.5 mph - N/A   Clear
2:55 PM 62.6 °F - 35.6 °F 37% 30.09 in 10.0 mi SSW 6.9 mph - N/A   Clear
3:15 PM 62.6 °F - 35.6 °F 37% 30.09 in 10.0 mi South 3.5 mph - N/A   Clear
3:35 PM 64.4 °F - 35.6 °F 34% 30.09 in 10.0 mi Calm Calm - N/A   Clear
3:55 PM 64.4 °F - 33.8 °F 32% 30.09 in 10.0 mi Calm Calm - N/A   Clear
4:15 PM 62.6 °F - 35.6 °F 37% 30.09 in 10.0 mi SE 3.5 mph - N/A   Clear
4:35 PM 60.8 °F - 35.6 °F 39% 30.08 in 10.0 mi Calm Calm - N/A   Clear
4:55 PM 55.4 °F - 35.6 °F 47% 30.08 in 10.0 mi Calm Calm - N/A   Clear
5:15 PM 55.4 °F - 35.6 °F 47% 30.08 in 10.0 mi Calm Calm - N/A   Clear
5:35 PM 48.2 °F - 33.8 °F 58% 30.08 in 10.0 mi Calm Calm - N/A   Clear
5:55 PM 51.8 °F - 33.8 °F 50% 30.08 in 10.0 mi SW 3.5 mph - N/A   Clear
6:15 PM 50.0 °F - 35.6 °F 58% 30.07 in 10.0 mi South 3.5 mph - N/A   Clear
6:35 PM 48.2 °F - 35.6 °F 62% 30.07 in 10.0 mi SSE 3.5 mph - N/A   Clear
6:55 PM 48.2 °F - 35.6 °F 62% 30.08 in 10.0 mi South 3.5 mph - N/A   Clear
7:15 PM 48.2 °F - 37.4 °F 66% 30.07 in 10.0 mi SSW 4.6 mph - N/A   Clear
7:35 PM 46.4 °F 43.5 °F 37.4 °F 71% 30.07 in 10.0 mi SSW 5.8 mph - N/A   Clear
7:55 PM 48.2 °F - 37.4 °F 66% 30.07 in 10.0 mi SSW 5.8 mph - N/A   Clear
8:15 PM 48.2 °F - 37.4 °F 66% 30.07 in 10.0 mi South 3.5 mph - N/A   Clear
8:35 PM 46.4 °F - 37.4 °F 71% 30.07 in 10.0 mi Calm Calm - N/A   Clear
8:55 PM 44.6 °F - 35.6 °F 71% 30.07 in 10.0 mi Calm Calm - N/A   Clear
9:15 PM 44.6 °F 43.1 °F 35.6 °F 71% 30.07 in 10.0 mi South 3.5 mph - N/A   Clear
9:35 PM 37.4 °F 33.8 °F 32.0 °F 81% 30.08 in 10.0 mi North 4.6 mph - N/A   Clear
9:55 PM 39.2 °F 35.0 °F 35.6 °F 87% 30.08 in 10.0 mi North 5.8 mph - N/A   Clear
10:15 PM 41.0 °F - 35.6 °F 81% 30.08 in 10.0 mi Calm Calm - N/A   Clear
10:35 PM 41.0 °F 38.0 °F 35.6 °F 81% 30.08 in 10.0 mi South 4.6 mph - N/A   Clear
10:55 PM 35.6 °F - 32.0 °F 87% 30.08 in 10.0 mi Calm Calm - N/A   Clear
11:15 PM 39.2 °F - 33.8 °F 81% 30.08 in 10.0 mi Calm Calm - N/A   Clear
11:35 PM 39.2 °F - 32.0 °F 75% 30.08 in 10.0 mi Calm Calm - N/A   Clear
11:55 PM 39.2 °F - 35.6 °F 87% 30.08 in 10.0 mi Calm Calm - N/A   Clear